Weather History for Manteo, NC

Change the Weather History Date:

Sunday, February 17, 2013

  Actual Average Record
Temperature  
Mean Temperature 34 °F -  
Max Temperature 36 °F 51 °F 80 °F (1976)
Min Temperature 32 °F 37 °F 20 °F (1979)
Degree Days  
Heating Degree Days 31    
Moisture  
Dew Point 19 °F    
Average Humidity 56    
Maximum Humidity 92    
Minimum Humidity 37    
Precipitation  
Precipitation 0.00 in - - ()
Sea Level Pressure  
Sea Level Pressure 30.00 in    
Wind  
Wind Speed 14 mph (NW)    
Max Wind Speed 20 mph    
Max Gust Speed 30 mph    
Visibility 10 miles    
Events Rain    
Averages and records for this station are not official NWS values.
T = Trace of Precipitation, MM = Missing Value Source: NWS Daily Summary

Daily Weather History Graph

Daily Weather History Graph

Search for Another Location

Airport:

Trip Planner

Search our weather history database for the weather conditions in past years. The results will help you decide how hot, cold, wet, or windy it might be!

Date:

Astronomy

Feb. 17, 2013 Rise Set
Actual Time 6:47 AM EST 5:46 PM EST
Civil Twilight 6:21 AM EST 6:12 PM EST
Nautical Twilight 5:51 AM EST 6:42 PM EST
Astronomical Twilight 5:21 AM EST 7:12 PM EST
Moon 10:53 AM EST (2/17) 12:25 AM EST (2/17)
Length of Visible Light 11h 51m
Length of Day
10h 59m
Waxing Crescent, 49% of the Moon is Illuminated
Feb 17
Waxing Crescent
Feb 17
First Quarter
Feb 25
Full
Mar 4
Last Quarter
Mar 11
New

Hourly Weather History & Observations

Time (EST) Temp. Windchill Dew Point Humidity Pressure Visibility Wind Dir Wind Speed Gust Speed Precip Events Conditions
12:15 AM 35.6 °F 26.6 °F 33.1 °F 91% 29.75 in 7.0 mi NNW 13.8 mph 24.2 mph N/A Rain Light Rain
12:35 AM 35.6 °F 28.0 °F 33.4 °F 92% 29.77 in 10.0 mi North 10.4 mph 26.5 mph N/A Rain Light Rain
12:55 AM 35.2 °F 28.1 °F 32.9 °F 91% 29.78 in 10.0 mi NNW 9.2 mph 21.9 mph N/A   Light Drizzle
1:15 AM 35.4 °F 26.4 °F 32.9 °F 91% 29.78 in 10.0 mi NNW 13.8 mph 20.7 mph N/A   Light Drizzle
1:35 AM 34.9 °F 27.1 °F 32.9 °F 92% 29.78 in 7.0 mi NNW 10.4 mph 20.7 mph N/A   Drizzle
1:55 AM 34.7 °F 26.4 °F 32.0 °F 90% 29.79 in 7.0 mi NNW 11.5 mph 20.7 mph N/A   Overcast
2:15 AM 34.9 °F 25.7 °F 32.9 °F 92% 29.80 in 7.0 mi NNW 13.8 mph 19.6 mph N/A   Light Drizzle
2:35 AM 34.9 °F 26.6 °F 32.0 °F 89% 29.80 in 7.0 mi NW 11.5 mph 20.7 mph N/A   Light Drizzle
2:55 AM 35.2 °F 26.6 °F 30.6 °F 83% 29.80 in 10.0 mi NNW 12.7 mph 25.3 mph N/A   Overcast
3:15 AM 34.9 °F 25.3 °F 28.4 °F 77% 29.80 in 10.0 mi NW 15.0 mph 26.5 mph N/A   Overcast
3:35 AM 34.5 °F 24.1 °F 27.1 °F 74% 29.81 in 10.0 mi NNW 17.3 mph 28.8 mph N/A   Overcast
3:55 AM 34.2 °F 24.4 °F 25.3 °F 70% 29.82 in 10.0 mi NW 15.0 mph 28.8 mph N/A   Scattered Clouds
4:15 AM 33.8 °F 23.9 °F 25.2 °F 71% 29.83 in 10.0 mi NNW 15.0 mph 23.0 mph N/A   Clear
4:35 AM 33.8 °F 23.9 °F 23.5 °F 66% 29.84 in 10.0 mi NNW 15.0 mph 28.8 mph N/A   Clear
4:55 AM 33.6 °F 23.7 °F 22.3 °F 63% 29.85 in 10.0 mi NNW 15.0 mph 27.6 mph N/A   Clear
5:15 AM 33.4 °F 24.8 °F 21.7 °F 62% 29.86 in 10.0 mi NNW 11.5 mph 26.5 mph N/A   Clear
5:35 AM 33.3 °F 22.1 °F 20.3 °F 59% 29.86 in 10.0 mi NNW 18.4 mph 26.5 mph N/A   Clear
5:55 AM 32.9 °F 22.8 °F 20.7 °F 61% 29.87 in 10.0 mi NNW 15.0 mph 25.3 mph N/A   Clear
6:15 AM 32.9 °F 23.7 °F 21.7 °F 64% 29.88 in 10.0 mi NW 12.7 mph 25.3 mph N/A   Clear
6:35 AM 32.7 °F 21.8 °F 21.6 °F 64% 29.89 in 10.0 mi NNW 17.3 mph 27.6 mph N/A   Clear
7:15 AM 33.1 °F 21.5 °F 19.2 °F 57% 29.91 in 10.0 mi NW 19.6 mph 27.6 mph N/A   Clear
7:35 AM 33.4 °F 23.9 °F 17.2 °F 52% 29.92 in 10.0 mi NW 13.8 mph 27.6 mph N/A   Clear
7:55 AM 33.8 °F 24.3 °F 18.9 °F 54% 29.93 in 10.0 mi NW 13.8 mph 28.8 mph N/A   Clear
8:15 AM 34.2 °F 24.4 °F 19.4 °F 55% 29.94 in 10.0 mi NNW 15.0 mph 25.3 mph N/A   Clear
8:55 AM 35.2 °F 27.1 °F 20.1 °F 54% 29.96 in 10.0 mi NW 11.5 mph 20.7 mph N/A   Clear
9:15 AM 34.9 °F 26.2 °F 21.4 °F 58% 29.96 in 10.0 mi NW 12.7 mph 24.2 mph N/A   Scattered Clouds
9:55 AM 34.5 °F 26.2 °F 23.0 °F 63% 29.98 in 10.0 mi NW 11.5 mph 27.6 mph N/A   Mostly Cloudy
10:15 AM 35.1 °F 26.4 °F 21.9 °F 59% 29.98 in 10.0 mi NW 12.7 mph 24.2 mph N/A   Scattered Clouds
10:35 AM 35.8 °F 25.1 °F 21.0 °F 55% 29.99 in 10.0 mi WNW 19.6 mph 26.5 mph N/A   Scattered Clouds
10:55 AM 35.6 °F 27.1 °F 20.3 °F 54% 29.99 in 10.0 mi WNW 12.7 mph 21.9 mph N/A   Scattered Clouds
11:15 AM 35.1 °F 24.5 °F 21.2 °F 57% 30.00 in 10.0 mi WNW 18.4 mph 24.2 mph N/A   Mostly Cloudy
11:35 AM 34.7 °F 25.5 °F 18.5 °F 52% 30.00 in 10.0 mi WNW 13.8 mph 23.0 mph N/A   Mostly Cloudy
11:55 AM 35.8 °F 25.4 °F 19.0 °F 51% 30.00 in 10.0 mi WNW 18.4 mph 27.6 mph N/A   Scattered Clouds
12:15 PM 36.0 °F 28.5 °F 19.0 °F 50% 30.01 in 10.0 mi West 10.4 mph 25.3 mph N/A   Scattered Clouds
12:35 PM 34.3 °F 23.9 °F 19.6 °F 55% 30.00 in 10.0 mi WNW 17.3 mph 26.5 mph N/A   Mostly Cloudy
12:55 PM 35.1 °F 26.9 °F 19.8 °F 54% 30.01 in 10.0 mi WNW 11.5 mph 24.2 mph N/A   Mostly Cloudy
1:15 PM 34.9 °F 25.7 °F 19.0 °F 52% 30.01 in 10.0 mi WNW 13.8 mph 23.0 mph N/A   Mostly Cloudy
1:55 PM 32.5 °F 22.7 °F 18.5 °F 56% 30.02 in 10.0 mi NW 13.8 mph 23.0 mph N/A   Overcast
2:15 PM 33.3 °F 24.1 °F 16.9 °F 51% 30.02 in 10.0 mi NW 12.7 mph 20.7 mph N/A   Overcast
2:35 PM 32.9 °F 23.7 °F 17.4 °F 53% 30.02 in 10.0 mi NW 12.7 mph 24.2 mph N/A   Overcast
2:55 PM 32.9 °F 22.8 °F 16.5 °F 51% 30.03 in 10.0 mi WNW 15.0 mph 27.6 mph N/A   Overcast
3:15 PM 34.3 °F 23.2 °F 16.3 °F 48% 30.03 in 10.0 mi WNW 19.6 mph 28.8 mph N/A   Overcast
3:35 PM 33.8 °F 22.8 °F 16.0 °F 48% 30.04 in 10.0 mi WNW 18.4 mph 26.5 mph N/A   Overcast
3:55 PM 34.2 °F 24.0 °F 15.1 °F 46% 30.04 in 10.0 mi WNW 16.1 mph 25.3 mph N/A   Overcast
4:15 PM 34.7 °F 24.0 °F 14.2 °F 43% 30.05 in 10.0 mi WNW 18.4 mph 27.6 mph N/A   Mostly Cloudy
4:35 PM 34.0 °F 25.0 °F 15.4 °F 47% 30.05 in 10.0 mi WNW 12.7 mph 27.6 mph N/A   Overcast
4:55 PM 32.9 °F 22.4 °F 14.4 °F 47% 30.07 in 10.0 mi NW 16.1 mph 25.3 mph N/A   Mostly Cloudy
5:15 PM 33.1 °F 23.0 °F 14.5 °F 47% 30.07 in 10.0 mi NW 15.0 mph 24.2 mph N/A   Mostly Cloudy
5:35 PM 32.9 °F 25.3 °F 14.7 °F 47% 30.09 in 10.0 mi NW 9.2 mph 24.2 mph N/A   Mostly Cloudy
5:55 PM 32.5 °F 23.2 °F 14.0 °F 46% 30.10 in 10.0 mi NW 12.7 mph 24.2 mph N/A   Mostly Cloudy
6:15 PM 32.5 °F 22.7 °F 12.7 °F 44% 30.11 in 10.0 mi WNW 13.8 mph 24.2 mph N/A   Scattered Clouds
6:35 PM 32.4 °F 21.7 °F 11.3 °F 42% 30.12 in 10.0 mi WNW 16.1 mph 24.2 mph N/A   Clear
6:55 PM 32.5 °F 21.5 °F 10.0 °F 39% 30.13 in 10.0 mi NW 17.3 mph 27.6 mph N/A   Clear
7:15 PM 32.5 °F 21.2 °F 10.4 °F 40% 30.14 in 10.0 mi NW 18.4 mph 29.9 mph N/A   Clear
7:35 PM 32.7 °F 21.8 °F 10.9 °F 40% 30.15 in 10.0 mi NW 17.3 mph 27.6 mph N/A   Clear
7:55 PM 32.5 °F 21.5 °F 11.8 °F 42% 30.16 in 10.0 mi NW 17.3 mph 23.0 mph N/A   Clear
8:15 PM 32.5 °F 22.7 °F 10.0 °F 39% 30.17 in 10.0 mi NW 13.8 mph 27.6 mph N/A   Clear
8:35 PM 32.7 °F 22.5 °F 9.5 °F 38% 30.18 in 10.0 mi NW 15.0 mph 26.5 mph N/A   Clear
8:55 PM 32.7 °F 24.5 °F 11.1 °F 41% 30.19 in 10.0 mi NW 10.4 mph 20.7 mph N/A   Clear
9:15 PM 32.5 °F 21.9 °F 10.8 °F 40% 30.19 in 10.0 mi NW 16.1 mph 23.0 mph N/A   Clear
9:35 PM 32.7 °F 25.0 °F 9.9 °F 39% 30.20 in 10.0 mi NW 9.2 mph 23.0 mph N/A   Clear
9:55 PM 32.5 °F 23.2 °F 9.7 °F 39% 30.20 in 10.0 mi NW 12.7 mph 21.9 mph N/A   Clear
10:15 PM 32.4 °F 24.0 °F 10.2 °F 40% 30.21 in 10.0 mi NNW 10.4 mph 18.4 mph N/A   Clear
10:35 PM 32.7 °F 23.4 °F 9.0 °F 37% 30.21 in 10.0 mi NW 12.7 mph 23.0 mph N/A   Clear
10:55 PM 32.7 °F 23.4 °F 10.4 °F 40% 30.21 in 10.0 mi NW 12.7 mph 23.0 mph N/A   Clear
11:15 PM 32.4 °F 22.1 °F 10.0 °F 39% 30.22 in 10.0 mi NNW 15.0 mph 25.3 mph N/A   Clear
11:35 PM 32.4 °F 22.5 °F 9.1 °F 38% 30.22 in 10.0 mi NW 13.8 mph 24.2 mph N/A   Clear
11:55 PM 32.0 °F 23.0 °F 11.1 °F 42% 30.22 in 10.0 mi NW 11.5 mph 21.9 mph N/A   Clear